Location: Seminole
(32.7190°N, 102.6440°W)
Time: 00:37:20
(UTC-05:00)

Meteor 2-10 - Visible Passes

Search period start: 27 April 2015 00:00
Search period end: 07 May 2015 00:00
Orbit: 738 x 870 km, 81.2° (Epoch: 26 April)

Date Brightness Start Highest point End Pass type
(mag) Time Alt. Az. Time Alt. Az. Time Alt. Az.
27 Apr 5.0 21:48:30 10° SSW 21:53:49 51° W 21:58:58 10° N visible
28 Apr 4.3 21:22:23 10° SSW 21:27:51 78° W 21:33:10 10° N visible
29 Apr 4.1 20:56:31 10° S 21:01:56 70° E 21:07:11 10° NNE visible
29 Apr 7.3 22:43:00 10° W 22:44:28 11° WNW 22:45:32 10° WNW visible
30 Apr 7.0 22:14:43 10° WSW 22:18:15 17° WNW 22:21:28 10° NNW visible
01 May 6.4 21:47:39 10° SW 21:52:06 25° WNW 21:56:20 10° NNW visible
02 May 5.7 21:21:02 10° SW 21:26:02 38° WNW 21:30:52 10° N visible
03 May 4.9 20:54:44 10° SSW 21:00:02 58° W 21:05:10 10° N visible
05 May 7.3 21:48:18 10° W 21:50:35 12° WNW 21:52:30 10° NW visible
06 May 7.0 21:20:36 10° WSW 21:24:23 19° WNW 21:27:54 10° NNW visible
